TimeCDT,TemperatureF,Dew PointF,Humidity,Sea Level PressureIn,VisibilityMPH,Wind Direction,Wind SpeedMPH,Gust SpeedMPH,PrecipitationIn,Events,Conditions,WindDirDegrees,DateUTC
12:54 AM,72.0,59.0,64,30.05,10.0,Calm,Calm,-,N/A,,Scattered Clouds,0,2013-07-26 05:54:00
1:54 AM,71.1,60.1,68,30.06,10.0,Calm,Calm,-,N/A,,Scattered Clouds,0,2013-07-26 06:54:00
2:54 AM,70.0,60.1,71,30.04,10.0,Calm,Calm,-,N/A,,Scattered Clouds,0,2013-07-26 07:54:00
3:54 AM,68.0,60.1,76,30.04,10.0,Calm,Calm,-,N/A,,Partly Cloudy,0,2013-07-26 08:54:00
4:54 AM,68.0,61.0,78,30.05,10.0,Variable,4.6,-,N/A,,Partly Cloudy,0,2013-07-26 09:54:00
5:54 AM,68.0,61.0,78,30.05,9.0,ENE,3.5,-,N/A,,Scattered Clouds,60,2013-07-26 10:54:00
6:54 AM,69.1,62.1,78,30.05,10.0,East,3.5,-,N/A,,Mostly Cloudy,100,2013-07-26 11:54:00
7:54 AM,72.0,63.0,73,30.06,10.0,Calm,Calm,-,N/A,,Overcast,0,2013-07-26 12:54:00
8:54 AM,75.9,62.1,62,30.06,10.0,ESE,3.5,-,N/A,,Mostly Cloudy,110,2013-07-26 13:54:00
9:54 AM,78.1,62.1,58,30.06,10.0,SSW,4.6,-,N/A,,Overcast,210,2013-07-26 14:54:00
10:54 AM,79.0,62.1,56,30.06,10.0,SSE,4.6,-,N/A,,Mostly Cloudy,150,2013-07-26 15:54:00
11:54 AM,82.0,63.0,52,30.07,10.0,WSW,6.9,-,N/A,,Mostly Cloudy,250,2013-07-26 16:54:00
12:54 PM,81.0,62.1,52,30.05,10.0,SSW,6.9,-,N/A,,Overcast,210,2013-07-26 17:54:00
1:54 PM,82.0,59.0,45,30.04,10.0,Calm,Calm,-,N/A,,Overcast,0,2013-07-26 18:54:00
2:54 PM,81.0,60.1,49,30.04,10.0,West,4.6,-,N/A,,Overcast,270,2013-07-26 19:54:00
3:54 PM,79.0,63.0,58,30.04,10.0,WNW,8.1,-,N/A,,Overcast,300,2013-07-26 20:54:00
4:54 PM,78.1,64.0,62,30.03,10.0,NW,6.9,-,N/A,,Overcast,320,2013-07-26 21:54:00
5:54 PM,78.1,63.0,60,30.02,10.0,NNE,5.8,-,N/A,,Overcast,20,2013-07-26 22:54:00
6:54 PM,78.1,63.0,60,30.01,10.0,NNE,8.1,-,N/A,,Overcast,30,2013-07-26 23:54:00
7:54 PM,77.0,64.0,64,29.97,10.0,ENE,8.1,-,N/A,,Overcast,70,2013-07-27 00:54:00
8:54 PM,77.0,64.0,64,29.98,10.0,Calm,Calm,-,N/A,,Overcast,0,2013-07-27 01:54:00
9:54 PM,77.0,63.0,62,29.98,10.0,ESE,4.6,-,N/A,,Overcast,110,2013-07-27 02:54:00
10:54 PM,73.9,64.9,73,29.99,10.0,WSW,3.5,-,N/A,,Overcast,250,2013-07-27 03:54:00
11:54 PM,73.9,64.9,73,30.00,10.0,West,3.5,-,N/A,,Overcast,280,2013-07-27 04:54:00